Hourly Weather Razgrad

Today, 26 October, Monday

Time Temperature Precipitation Wind Pressure Humidity
00:00 +14°C° 0 mm 1 mps 739 mmHg 82%
01:00 +14°C° 0 mm 1 mps 739 mmHg 85%
02:00 +13°C° 0 mm 2 mps 740 mmHg 88%
03:00 +13°C° 0.1 mm 2 mps 740 mmHg 90%
04:00 +13°C° 0.1 mm 2 mps 740 mmHg 91%
05:00 +13°C° 0.1 mm 2 mps 740 mmHg 93%
06:00 +13°C° 0.1 mm 2 mps 740 mmHg 92%
07:00 +13°C° 0.1 mm 2 mps 740 mmHg 91%
08:00 +14°C° 0.1 mm 2 mps 740 mmHg 90%
09:00 +15°C° 0 mm 2 mps 740 mmHg 82%
10:00 +17°C° 0 mm 3 mps 740 mmHg 74%
11:00 +18°C° 0 mm 3 mps 740 mmHg 66%
12:00 +19°C° 0 mm 3 mps 740 mmHg 62%
13:00 +20°C° 0 mm 3 mps 740 mmHg 58%
14:00 +21°C° 0 mm 3 mps 740 mmHg 53%
15:00 +20°C° 0 mm 2 mps 740 mmHg 57%
16:00 +19°C° 0 mm 2 mps 740 mmHg 60%
17:00 +19°C° 0 mm 1 mps 740 mmHg 63%
18:00 +18°C° 0 mm 1 mps 740 mmHg 67%
19:00 +16°C° 0 mm 1 mps 740 mmHg 70%
20:00 +14°C° 0 mm 0 mps 740 mmHg 73%
21:00 +14°C° 0 mm 0 mps 741 mmHg 74%
22:00 +15°C° 0 mm 1 mps 741 mmHg 75%
23:00 +14°C° 0 mm 1 mps 741 mmHg 76%

Tomorrow, 27 October, Tuesday

Time Temperature Precipitation Wind Pressure Humidity
00:00 +14°C° 0 mm 1 mps 741 mmHg 77%
01:00 +13°C° 0 mm 0 mps 741 mmHg 78%
02:00 +13°C° 0 mm 0 mps 741 mmHg 79%
03:00 +13°C° 0 mm 1 mps 741 mmHg 79%
04:00 +13°C° 0 mm 1 mps 741 mmHg 79%
05:00 +13°C° 0 mm 1 mps 741 mmHg 80%
06:00 +14°C° 0 mm 1 mps 741 mmHg 77%
07:00 +14°C° 0 mm 1 mps 741 mmHg 75%
08:00 +15°C° 0 mm 1 mps 741 mmHg 73%
09:00 +18°C° 0 mm 1 mps 741 mmHg 64%
10:00 +19°C° 0 mm 2 mps 741 mmHg 56%
11:00 +21°C° 0 mm 2 mps 741 mmHg 48%
12:00 +23°C° 0 mm 2 mps 741 mmHg 44%
13:00 +24°C° 0 mm 2 mps 741 mmHg 41%
14:00 +24°C° 0 mm 2 mps 740 mmHg 38%
15:00 +23°C° 0 mm 2 mps 740 mmHg 42%
16:00 +21°C° 0 mm 2 mps 740 mmHg 46%
17:00 +20°C° 0 mm 2 mps 740 mmHg 51%
18:00 +19°C° 0 mm 2 mps 740 mmHg 57%
19:00 +17°C° 0 mm 2 mps 740 mmHg 64%
20:00 +16°C° 0 mm 2 mps 740 mmHg 70%
21:00 +16°C° 0 mm 2 mps 740 mmHg 76%
22:00 +15°C° 0 mm 2 mps 740 mmHg 81%
23:00 +15°C° 0 mm 2 mps 740 mmHg 87%

Day after tomorrow, 28 October, Wednesday

Time Temperature Precipitation Wind Pressure Humidity
00:00 +14°C° 0 mm 2 mps 740 mmHg 89%
01:00 +14°C° 0 mm 2 mps 740 mmHg 90%
02:00 +14°C° 0 mm 2 mps 740 mmHg 92%
03:00 +14°C° 0 mm 2 mps 740 mmHg 92%
04:00 +13°C° 0 mm 2 mps 740 mmHg 92%
05:00 +13°C° 0 mm 2 mps 740 mmHg 92%
06:00 +14°C° 0 mm 2 mps 740 mmHg 91%
07:00 +14°C° 0 mm 1 mps 740 mmHg 89%
08:00 +15°C° 0 mm 1 mps 740 mmHg 87%
09:00 +16°C° 0 mm 1 mps 741 mmHg 78%
10:00 +19°C° 0 mm 1 mps 741 mmHg 68%
11:00 +21°C° 0 mm 1 mps 741 mmHg 59%
12:00 +22°C° 0.1 mm 1 mps 741 mmHg 55%
13:00 +23°C° 0.1 mm 2 mps 741 mmHg 51%
14:00 +23°C° 0.1 mm 2 mps 740 mmHg 47%
15:00 +21°C° 0.2 mm 2 mps 740 mmHg 50%
16:00 +20°C° 0.2 mm 2 mps 740 mmHg 53%
17:00 +20°C° 0.2 mm 1 mps 740 mmHg 56%
18:00 +19°C° 0.1 mm 1 mps 740 mmHg 60%
19:00 +19°C° 0.1 mm 1 mps 740 mmHg 65%
20:00 +18°C° 0.1 mm 1 mps 741 mmHg 69%
21:00 +16°C° 0.1 mm 1 mps 741 mmHg 72%
22:00 +16°C° 0.1 mm 1 mps 741 mmHg 74%
23:00 +16°C° 0.1 mm 1 mps 741 mmHg 77%

29 October, Thursday

Time Temperature Precipitation Wind Pressure Humidity
00:00 +14°C° 0.1 mm 0 mps 741 mmHg 79%
01:00 +14°C° 0.1 mm 0 mps 741 mmHg 82%
02:00 +14°C° 0.1 mm 0 mps 741 mmHg 84%
03:00 +14°C° 0.1 mm 0 mps 741 mmHg 85%
04:00 +14°C° 0.1 mm 1 mps 741 mmHg 87%
05:00 +14°C° 0.1 mm 1 mps 741 mmHg 88%
06:00 +14°C° 0 mm 1 mps 741 mmHg 88%
07:00 +14°C° 0 mm 1 mps 741 mmHg 87%
08:00 +14°C° 0 mm 1 mps 742 mmHg 87%
09:00 +16°C° 0 mm 1 mps 742 mmHg 82%
10:00 +18°C° 0 mm 1 mps 742 mmHg 77%
11:00 +18°C° 0 mm 2 mps 742 mmHg 72%
12:00 +18°C° 0.1 mm 2 mps 742 mmHg 70%
13:00 +19°C° 0.1 mm 2 mps 742 mmHg 68%
14:00 +19°C° 0.1 mm 2 mps 742 mmHg 66%
15:00 +18°C° 0.2 mm 2 mps 742 mmHg 69%
16:00 +18°C° 0.2 mm 2 mps 742 mmHg 73%
17:00 +17°C° 0.2 mm 2 mps 742 mmHg 76%
18:00 +16°C° 0.3 mm 2 mps 743 mmHg 80%
19:00 +15°C° 0.3 mm 1 mps 743 mmHg 84%
20:00 +15°C° 0.3 mm 1 mps 744 mmHg 87%
21:00 +14°C° 0 mm 1 mps 744 mmHg 88%
22:00 +14°C° 0 mm 1 mps 744 mmHg 89%
23:00 +14°C° 0 mm 1 mps 744 mmHg 89%

30 October, Friday

Time Temperature Precipitation Wind Pressure Humidity
00:00 +14°C° 0 mm 1 mps 745 mmHg 89%
01:00 +13°C° 0 mm 1 mps 745 mmHg 90%
02:00 +13°C° 0 mm 2 mps 745 mmHg 90%
03:00 +13°C° 0 mm 2 mps 745 mmHg 90%
04:00 +13°C° 0 mm 2 mps 746 mmHg 91%
05:00 +13°C° 0 mm 2 mps 746 mmHg 91%
06:00 +13°C° 0 mm 2 mps 746 mmHg 90%
07:00 +13°C° 0 mm 2 mps 746 mmHg 88%
08:00 +13°C° 0 mm 2 mps 747 mmHg 87%
09:00 +15°C° 0 mm 2 mps 747 mmHg 79%
10:00 +16°C° 0 mm 3 mps 747 mmHg 71%
11:00 +18°C° 0 mm 3 mps 748 mmHg 63%
12:00 +19°C° 0 mm 3 mps 748 mmHg 60%
13:00 +19°C° 0 mm 3 mps 747 mmHg 56%
14:00 +20°C° 0 mm 3 mps 747 mmHg 53%
15:00 +19°C° 0 mm 2 mps 747 mmHg 56%
16:00 +18°C° 0 mm 2 mps 747 mmHg 60%
17:00 +18°C° 0 mm 1 mps 747 mmHg 63%
18:00 +16°C° 0 mm 1 mps 748 mmHg 66%
19:00 +15°C° 0 mm 1 mps 748 mmHg 69%
20:00 +14°C° 0 mm 0 mps 748 mmHg 72%
21:00 +13°C° 0 mm 0 mps 748 mmHg 74%
22:00 +13°C° 0 mm 0 mps 748 mmHg 76%
23:00 +13°C° 0 mm 0 mps 748 mmHg 77%

31 October, Saturday

Time Temperature Precipitation Wind Pressure Humidity
00:00 +12°C° 0 mm 0 mps 748 mmHg 79%
01:00 +12°C° 0 mm 0 mps 748 mmHg 80%
02:00 +12°C° 0 mm 0 mps 748 mmHg 82%
03:00 +11°C° 0 mm 0 mps 748 mmHg 82%
04:00 +11°C° 0 mm 0 mps 748 mmHg 83%
05:00 +11°C° 0 mm 0 mps 748 mmHg 84%
06:00 +11°C° 0 mm 0 mps 748 mmHg 82%
07:00 +12°C° 0 mm 0 mps 748 mmHg 80%
08:00 +12°C° 0 mm 0 mps 748 mmHg 78%
Show more